Showing default

ORBCOMM FM 114, 41179

Orbit data source: Space-Track

ORBCOMM FM 114, 41179 is a payload satellite owned by Orbcomm (US) in LEO that was launched on Tue, 22 Dec 2015 UTC via an FALCON 9 launch vehicle from the Air Force Eastern Test Range (AFETR). Payloads include a variety of satellites, spacecraft, and rockets equipped with specific instruments for various scientific and technological missions. These include communications satellites like Starlink; space stations such as the ISS; scientific satellites like the Hubble; Earth observation satellites from companies like Planet Labs, Umbra, and HawkEye 360; GPS; miniature CubeSats for education and research; and military/defense satellites.

Loading next visibility...
ORBCOMM FM 114 details
Identifier
41179, 2015-081A
Orbit
LEO
Last TLE update22 hours ago
Origin
Flag of USOrbcomm (US / ORB)
ManufacturerSNC Louisville
MissionOperational Commercial Communications
Bus & MotorSN-100A, Unknown motor
Mass172 kg wet, 158 kg dry
Launch date (UTC)
2015-12-22 (9 years ago)
Launch vehicle
FALCON 9
Launch site
Air Force Eastern Test Range (AFETR)
Object type
Payload
Rocket body
Debris
Shape & HBRBox + 1 Pan + 1 Ant, 13 m
Radar Cross Section2.222 m², Medium (>0.1 m² and < 1m²)

Expand to show TLE details & history

TLE from 22 hours ago
0 ORBCOMM FM 114
1 41179U 15081A   24360.55810547  .00002297  00000-0  53553-3 0  9991
2 41179  47.0032  26.6373 0003219 278.8887  81.1634 14.57660955479135
Epoch: 2024-12-25T13:23Z
Definitive object data (Epoch: 2024-12-25T13:23:40.312Z)
Latitude-0.00001°
Longitude91.16919°
Altitude700.603 km
Speed7.507 km/s
True Right ascension01h 46m 32s
True Declination0° 00' 00"
Sunlit
Object was in daylight at TLE epoch
Visualization TLE readout
Latitude-33.11727°
Longitude-56.01601°
Altitude709.134 km
Speed7.502 km/s
Apparent Right ascension19h 03m 58s
Apparent Declination-51° 01' 34"
Sunlit
Object is in daylight
Visualization observer readout
Local Sidereal Time11:10:43
Azimuth126.173° SE
Elevation-46.69°
Doppler factor1
Orbital elements
Apogee altitude704.25 km
Perigee altitude699.691 km
Semi-major axis7,080.108 km
Eccentricity0.0003219
Inclination47.0032°
RAAN26.6373°
Arg. of periapsis278.8887°
True anomaly81.19985°
Mean anomaly81.1634°
Eccentric anomaly81.18163°
Mean motion3.6432 °/min
BSTAR0.00053553
Orbital period98.81 mins
Loading maneuver chart data...
Loading historical data...
Loading historical data...
Loading historical data...
Loading historical data...
Loading historical data...
Loading historical data...
Loading historical data...

ORBCOMM FM 114 Visibility forecast

Observer location: undefined°, undefined

Span
Click to sort rows by Start time (UTC) header in descending order
Start Az.
Max El. time (UTC)
Max El. Az.
Max El.
End time (UTC)
End Az.
5 mins2024-12-27 03:24:18.530Z159.199° S2024-12-27 03:26:18.530Z128.462° SE18.248°2024-12-27 03:29:18.530Z90.589° ESE
8 mins2024-12-27 05:05:18.530Z237.015° WSW2024-12-27 05:09:18.530Z87.183° E44.3°2024-12-27 05:13:18.530Z63° ENE
8 mins2024-12-27 06:49:18.530Z284.556° WNW2024-12-27 06:53:18.530Z2.494° NNE32.782°2024-12-27 06:57:18.530Z58.435° ENE
7 mins2024-12-27 08:34:18.530Z311.297° NW2024-12-27 08:37:18.530Z12.741° NNE32.608°2024-12-27 08:41:18.530Z76.522° E
8 mins2024-12-27 10:17:18.530Z298.251° NW2024-12-27 10:21:18.530Z113.832° SE44.877°2024-12-27 10:25:18.530Z119.196° SE
|